[Date Prev][Date Next][Thread Prev][Thread Next] - [Date Index][Thread Index][Author Index]

2 Line ISS Keps 1-19



ISS
1 25544U 98067A   03019.48042319  .00030229  00000-0  38029-3 0  6015
2 25544  51.6378  47.2386 0005711  52.6441  98.9410 15.59376327237807



----
Via the sarex mailing list at AMSAT.ORG courtesy of AMSAT-NA.
To unsubscribe, send "unsubscribe sarex" to Majordomo@amsat.org



AMSAT Top AMSAT Home